Weather History for Moorhead, MN

Change the Weather History Date:

Sunday, September 1, 2013

  Actual Average (KFAR) Record (KFAR)
Temperature  
Mean Temperature 60 °F 65 °F  
Max Temperature 69 °F 77 °F 98 °F (1983)
Min Temperature 51 °F 53 °F 34 °F (1885)
Degree Days  
Heating Degree Days 5 3  
Month to date heating degree days 3  
Since 1 July heating degree days 53  
Cooling Degree Days 0 3  
Month to date cooling degree days 3  
Year to date cooling degree days 508  
Growing Degree Days 10 (Base 50)    
Moisture  
Dew Point 56 °F    
Average Humidity 85    
Maximum Humidity 100    
Minimum Humidity 49    
Precipitation  
Precipitation 0.00 in 0.10 in 2.50 in (2008)
Month to date precipitation 0.10  
Year to date precipitation 16.16  
Snow  
Snow 0.00 in 0.00 in 0.00 in ()
Month to date snowfall 0.0  
Since 1 July snowfall 0.0  
Since 1 September snowfall 0.0  
Snow Depth -    
Sea Level Pressure  
Sea Level Pressure 29.97 in    
Wind  
Wind Speed 9 mph (NNW)    
Max Wind Speed 17 mph    
Max Gust Speed 23 mph    
Visibility 10 miles    
Events      
T = Trace of Precipitation, MM = Missing Value Source: NWS Daily Summary

Daily Weather History Graph

Daily Weather History Graph

Search for Another Location

Airport:

Trip Planner

Search our weather history database for the weather conditions in past years. The results will help you decide how hot, cold, wet, or windy it might be!

Date:

Astronomy

Sep. 01, 2013 Rise Set
Actual Time 6:46 AM CDT 8:05 PM CDT
Civil Twilight 6:15 AM CDT 8:36 PM CDT
Nautical Twilight 5:37 AM CDT 9:14 PM CDT
Astronomical Twilight 4:56 AM CDT 9:54 PM CDT
Moon 3:00 AM CDT (9/1) 5:51 PM CDT (9/1)
Length of Visible Light 14h 21m
Length of Day
13h 18m
Waning Crescent, 13% of the Moon is Illuminated
Sep 1
Waning Crescent
Sep 5
New
Sep 12
First Quarter
Sep 19
Full
Sep 26
Last Quarter

Hourly Weather History & Observations

Time (CDT) Temp. Dew Point Humidity Pressure Visibility Wind Dir Wind Speed Gust Speed Precip Events Conditions
12:15 AM 60.8 °F 59.0 °F 94% 29.85 in 10.0 mi NW 3.5 mph - N/A   Clear
12:35 AM 59.0 °F 59.0 °F 100% 29.84 in 10.0 mi NNW 5.8 mph - N/A   Clear
12:55 AM 59.0 °F 59.0 °F 100% 29.84 in 10.0 mi WNW 6.9 mph - N/A   Clear
1:15 AM 60.8 °F 60.8 °F 100% 29.84 in 10.0 mi WNW 5.8 mph - N/A   Clear
1:34 AM 60.8 °F 59.0 °F 94% 29.84 in 10.0 mi NW 6.9 mph - N/A   Clear
1:55 AM 60.8 °F 59.0 °F 94% 29.85 in 10.0 mi NW 4.6 mph - N/A   Clear
2:15 AM 60.8 °F 59.0 °F 94% 29.85 in 10.0 mi NW 5.8 mph - N/A   Clear
2:34 AM 59.0 °F 59.0 °F 100% 29.85 in 10.0 mi NW 5.8 mph - N/A   Clear
2:55 AM 60.8 °F 60.8 °F 100% 29.86 in 10.0 mi NW 6.9 mph - N/A   Clear
3:15 AM 60.8 °F 60.8 °F 100% 29.86 in 10.0 mi NW 8.1 mph - N/A   Clear
3:34 AM 60.8 °F 60.8 °F 100% 29.87 in 10.0 mi NW 6.9 mph - N/A   Clear
3:55 AM 60.8 °F 60.8 °F 100% 29.87 in 10.0 mi NW 6.9 mph - N/A   Clear
4:15 AM 60.8 °F 60.8 °F 100% 29.87 in 10.0 mi NNW 9.2 mph - N/A   Clear
4:34 AM 60.8 °F 60.8 °F 100% 29.88 in 10.0 mi NNW 9.2 mph - N/A   Clear
4:55 AM 62.6 °F 62.6 °F 100% 29.89 in 10.0 mi NNW 10.4 mph 16.1 mph N/A   Scattered Clouds
5:15 AM 60.8 °F 60.8 °F 100% 29.89 in 10.0 mi North 9.2 mph - N/A   Scattered Clouds
5:35 AM 60.8 °F 60.8 °F 100% 29.89 in 10.0 mi North 10.4 mph - N/A   Mostly Cloudy
5:55 AM 60.8 °F 60.8 °F 100% 29.90 in 10.0 mi North 9.2 mph - N/A   Overcast
6:14 AM 62.6 °F 60.8 °F 94% 29.91 in 10.0 mi North 11.5 mph - N/A   Overcast
6:35 AM 60.8 °F 60.8 °F 100% 29.90 in 10.0 mi North 12.7 mph - N/A   Overcast
6:55 AM 60.8 °F 60.8 °F 100% 29.91 in 10.0 mi NNW 10.4 mph - N/A   Scattered Clouds
7:14 AM 59.0 °F 59.0 °F 100% 29.92 in 10.0 mi NNW 13.8 mph - N/A   Scattered Clouds
7:35 AM 59.0 °F 59.0 °F 100% 29.93 in 10.0 mi NNW 12.7 mph 18.4 mph N/A   Overcast
7:55 AM 59.0 °F 57.2 °F 94% 29.94 in 10.0 mi NNW 13.8 mph 18.4 mph N/A   Overcast
8:14 AM 59.0 °F 57.2 °F 94% 29.94 in 10.0 mi NNW 15.0 mph - N/A   Overcast
8:35 AM 60.8 °F 57.2 °F 88% 29.96 in 10.0 mi NNW 15.0 mph 18.4 mph N/A   Overcast
8:55 AM 60.8 °F 55.4 °F 82% 29.97 in 10.0 mi NNW 17.3 mph 23.0 mph N/A   Overcast
9:14 AM 60.8 °F 55.4 °F 82% 29.97 in 10.0 mi North 16.1 mph 21.9 mph N/A   Overcast
9:35 AM 59.0 °F 55.4 °F 88% 29.99 in 10.0 mi North 13.8 mph 20.7 mph N/A   Overcast
9:55 AM 59.0 °F 55.4 °F 88% 29.99 in 10.0 mi North 13.8 mph - N/A   Overcast
10:14 AM 59.0 °F 55.4 °F 88% 30.00 in 10.0 mi NNW 16.1 mph - N/A   Overcast
10:35 AM 59.0 °F 55.4 °F 88% 30.00 in 10.0 mi North 12.7 mph 17.3 mph N/A   Overcast
10:55 AM 59.0 °F 55.4 °F 88% 30.01 in 10.0 mi NNW 13.8 mph 18.4 mph N/A   Overcast
11:14 AM 59.0 °F 55.4 °F 88% 30.01 in 10.0 mi North 15.0 mph - N/A   Overcast
11:35 AM 60.8 °F 55.4 °F 82% 30.02 in 10.0 mi NNW 13.8 mph 19.6 mph N/A   Overcast
11:55 AM 59.0 °F 57.2 °F 94% 30.02 in 10.0 mi NNW 12.7 mph - N/A   Overcast
12:14 PM 60.8 °F 57.2 °F 88% 30.02 in 10.0 mi North 12.7 mph - N/A   Overcast
12:35 PM 60.8 °F 55.4 °F 82% 30.02 in 10.0 mi North 11.5 mph 18.4 mph N/A   Overcast
12:55 PM 60.8 °F 55.4 °F 82% 30.03 in 10.0 mi North 13.8 mph - N/A   Overcast
1:14 PM 60.8 °F 57.2 °F 88% 30.03 in 10.0 mi North 13.8 mph - N/A   Overcast
1:35 PM 62.6 °F 55.4 °F 77% 30.03 in 10.0 mi North 11.5 mph 16.1 mph N/A   Overcast
1:55 PM 62.6 °F 55.4 °F 77% 30.04 in 10.0 mi NNW 12.7 mph 17.3 mph N/A   Overcast
2:14 PM 62.6 °F 55.4 °F 77% 30.04 in 10.0 mi NW 12.7 mph 18.4 mph N/A   Overcast
2:35 PM 62.6 °F 55.4 °F 77% 30.04 in 10.0 mi NNW 9.2 mph - N/A   Overcast
2:54 PM 62.6 °F 55.4 °F 77% 30.04 in 10.0 mi NNW 10.4 mph 16.1 mph N/A   Overcast
3:14 PM 62.6 °F 55.4 °F 77% 30.04 in 10.0 mi NNW 9.2 mph - N/A   Overcast
3:35 PM 64.4 °F 53.6 °F 68% 30.04 in 10.0 mi North 13.8 mph 19.6 mph N/A   Overcast
3:54 PM 64.4 °F 53.6 °F 68% 30.03 in 10.0 mi North 11.5 mph 16.1 mph N/A   Mostly Cloudy
4:14 PM 66.2 °F 53.6 °F 64% 30.03 in 10.0 mi NNW 11.5 mph 19.6 mph N/A   Scattered Clouds
4:35 PM 66.2 °F 53.6 °F 64% 30.03 in 10.0 mi North 10.4 mph 17.3 mph N/A   Clear
4:54 PM 68.0 °F 53.6 °F 60% 30.02 in 10.0 mi North 9.2 mph - N/A   Clear
5:14 PM 68.0 °F 51.8 °F 56% 30.02 in 10.0 mi NNW 9.2 mph - N/A   Clear
5:35 PM 69.8 °F 51.8 °F 53% 30.02 in 10.0 mi North 8.1 mph - N/A   Clear
5:54 PM 69.8 °F 51.8 °F 53% 30.01 in 10.0 mi NNE 10.4 mph - N/A   Clear
6:14 PM 69.8 °F 51.8 °F 53% 30.02 in 10.0 mi North 11.5 mph 17.3 mph N/A   Clear
6:35 PM 69.8 °F 50.0 °F 49% 30.01 in 10.0 mi North 12.7 mph - N/A   Clear
6:54 PM 68.0 °F 50.0 °F 52% 30.02 in 10.0 mi North 9.2 mph - N/A   Clear
7:15 PM 66.2 °F 51.8 °F 60% 30.02 in 10.0 mi North 6.9 mph - N/A   Clear
7:34 PM 66.2 °F 51.8 °F 60% 30.02 in 10.0 mi North 5.8 mph - N/A   Clear
7:54 PM 62.6 °F 51.8 °F 68% 30.03 in 10.0 mi North 4.6 mph - N/A   Clear
8:15 PM 60.8 °F 53.6 °F 77% 30.03 in 10.0 mi North 4.6 mph - N/A   Clear
8:34 PM 57.2 °F 53.6 °F 88% 30.03 in 10.0 mi North 5.8 mph - N/A   Clear
8:55 PM 57.2 °F 53.6 °F 88% 30.04 in 10.0 mi North 5.8 mph - N/A   Clear
9:15 PM 55.4 °F 53.6 °F 94% 30.05 in 10.0 mi North 4.6 mph - N/A   Clear
9:34 PM 55.4 °F 51.8 °F 88% 30.04 in 10.0 mi North 5.8 mph - N/A   Clear
9:55 PM 55.4 °F 51.8 °F 88% 30.04 in 10.0 mi NNE 5.8 mph - N/A   Clear
10:15 PM 53.6 °F 51.8 °F 94% 30.05 in 10.0 mi NNE 6.9 mph - N/A   Clear
10:34 PM 55.4 °F 51.8 °F 88% 30.06 in 10.0 mi NE 5.8 mph - N/A   Clear
10:55 PM 55.4 °F 51.8 °F 88% 30.06 in 10.0 mi ENE 4.6 mph - N/A   Clear
11:15 PM 53.6 °F 51.8 °F 94% 30.07 in 10.0 mi NE 4.6 mph - N/A   Clear
11:34 PM 51.8 °F 51.8 °F 100% 30.07 in 10.0 mi ENE 4.6 mph - N/A   Clear
11:55 PM 51.8 °F 50.0 °F 94% 30.07 in 10.0 mi Calm Calm - N/A   Clear